TimeEDT,TemperatureF,Dew PointF,Humidity,Sea Level PressureIn,VisibilityMPH,Wind Direction,Wind SpeedMPH,Gust SpeedMPH,PrecipitationIn,Events,Conditions,WindDirDegrees,DateUTC
12:53 AM,66.9,64.9,93,30.15,10.0,Calm,Calm,-,0.00,,Overcast,0,2013-08-19 04:53:00
1:53 AM,66.0,64.9,96,30.14,8.0,Calm,Calm,-,0.00,Rain,Light Rain,0,2013-08-19 05:53:00
2:53 AM,66.9,64.9,93,30.12,9.0,Calm,Calm,-,0.03,Rain,Light Rain,0,2013-08-19 06:53:00
3:53 AM,66.9,64.0,90,30.12,10.0,Calm,Calm,-,0.01,,Overcast,0,2013-08-19 07:53:00
4:03 AM,66.0,64.0,93,30.18,10.0,Calm,Calm,-,N/A,,Mostly Cloudy,0,2013-08-19 08:03:00
4:17 AM,66.0,64.0,93,30.18,10.0,Calm,Calm,-,N/A,,Mostly Cloudy,0,2013-08-19 08:17:00
4:53 AM,66.9,64.0,90,30.11,10.0,ESE,4.6,-,0.00,,Mostly Cloudy,120,2013-08-19 08:53:00
5:53 AM,66.0,64.0,93,30.10,10.0,Calm,Calm,-,0.01,,Overcast,0,2013-08-19 09:53:00
6:53 AM,66.0,64.9,96,30.11,10.0,Calm,Calm,-,0.00,,Overcast,0,2013-08-19 10:53:00
7:53 AM,66.9,64.0,90,30.11,10.0,East,4.6,-,N/A,,Overcast,100,2013-08-19 11:53:00
8:53 AM,66.9,64.9,93,30.12,10.0,Calm,Calm,-,0.01,,Overcast,0,2013-08-19 12:53:00
9:53 AM,68.0,64.0,87,30.13,10.0,Calm,Calm,-,0.00,,Overcast,0,2013-08-19 13:53:00
10:53 AM,69.1,64.9,87,30.14,10.0,Calm,Calm,-,N/A,,Overcast,0,2013-08-19 14:53:00
11:22 AM,70.0,64.9,84,30.20,10.0,ESE,3.5,-,N/A,,Mostly Cloudy,120,2013-08-19 15:22:00
11:36 AM,70.0,64.9,84,30.20,10.0,Calm,Calm,-,N/A,,Overcast,0,2013-08-19 15:36:00
11:39 AM,70.0,64.9,84,30.20,10.0,ESE,3.5,-,N/A,,Mostly Cloudy,120,2013-08-19 15:39:00
11:53 AM,72.0,64.9,78,30.13,10.0,Calm,Calm,-,N/A,,Mostly Cloudy,0,2013-08-19 15:53:00
12:53 PM,73.9,64.9,73,30.13,10.0,South,3.5,-,N/A,,Overcast,180,2013-08-19 16:53:00
1:53 PM,75.0,64.0,69,30.12,10.0,Calm,Calm,-,N/A,,Overcast,0,2013-08-19 17:53:00
2:53 PM,77.0,64.0,64,30.10,10.0,Calm,Calm,-,N/A,,Mostly Cloudy,0,2013-08-19 18:53:00
3:53 PM,79.0,63.0,58,30.07,10.0,Calm,Calm,-,N/A,,Mostly Cloudy,0,2013-08-19 19:53:00
4:53 PM,79.0,61.0,54,30.06,10.0,Calm,Calm,-,N/A,,Mostly Cloudy,0,2013-08-19 20:53:00
5:53 PM,80.1,63.0,56,30.05,10.0,Calm,Calm,-,N/A,,Scattered Clouds,0,2013-08-19 21:53:00
6:53 PM,78.1,64.9,64,30.04,10.0,Calm,Calm,-,N/A,,Mostly Cloudy,0,2013-08-19 22:53:00
7:53 PM,75.0,66.9,76,30.06,10.0,Calm,Calm,-,N/A,,Mostly Cloudy,0,2013-08-19 23:53:00
8:53 PM,70.0,66.0,87,30.07,10.0,Calm,Calm,-,N/A,,Scattered Clouds,0,2013-08-20 00:53:00
9:53 PM,69.1,64.9,87,30.09,10.0,Calm,Calm,-,N/A,,Mostly Cloudy,0,2013-08-20 01:53:00
10:53 PM,69.1,66.0,90,30.09,10.0,Calm,Calm,-,N/A,,Mostly Cloudy,0,2013-08-20 02:53:00
11:53 PM,69.1,66.0,90,30.10,10.0,Calm,Calm,-,N/A,,Mostly Cloudy,0,2013-08-20 03:53:00